Content
SEND FEEDBACK

Daily
Averages
Monthly
Summary
United States of America

SOUTH LAKE TAHOE, CALIFORNIA


Home > North America > United States > California
Elevation: 6263 feet     Latitude: 38 53N     Longitude: 119 59W

WEATHER
 
SELECT A DAY
Number of Records: 177,052;   Date Range: 1/1/95 - 10/24/14
 
SHARE

PRINT THIS DATA

[ ← Previous Day ]
WEATHER ALMANAC - MARCH 25, 2013
[ Next Day → ]
[ °C ]   °F
Weather ElementAverageHighLow
Temperature42.9 °F60.1 °F (1:53 pm)26.1 °F (6:53 am)
Dewpoint16.6 °F28.9 °F (8:53 pm) (7:00 pm)
Humidity40.6 %69 % (7:53 am)10 % (11:53 am)
Barometer29.96 in30.04 in (7:53 am)29.88 in (11:53 pm)
Wind Speed4.3 mph12.7 mph (1:53 pm)
Wind Gust23 mph (11:53 am)
Weather ElementAverage
Visibility10 mi
Wind DirectionENE (78.3 °)

Weather ElementTotal
Precipitation---
Heating Degree Days21.9 (Base 65)
Averaged from 23 records on March 25, 2013
WEATHER CONDITIONS BREAKOUT
WIND DIRECTION BREAKOUT
WEATHER BY HOUR - MARCH 25, 2013
[ °C ]   °F
Local TimeTemperatureDewpointHumidityBarometerVisibilityWind DirectionWind SpeedGust SpeedPrecipitationEventsConditions
1:53 AM32.0 °F19.0 °F59 %29.99 in10.0 miCalmClear
2:53 AM30.0 °F18.0 °F61 %29.99 in10.0 miCalmClear
3:53 AM28.9 °F18.0 °F64 %29.99 in10.0 miCalmClear
4:53 AM28.0 °F18.0 °F66 %29.99 in10.0 miCalmClear
5:53 AM27.0 °F17.1 °F66 %30.00 in10.0 miCalmClear
6:53 AM26.1 °F16.0 °F66 %30.02 in10.0 miCalmClear
7:53 AM26.1 °F17.1 °F69 %30.04 in10.0 miCalmClear
8:53 AM33.1 °F17.1 °F52 %30.02 in10.0 miCalmClear
9:53 AM43.0 °F19.0 °F38 %30.00 in10.0 miNE (40°)4.6 mphClear
10:53 AM50.0 °F23.0 °F35 %29.99 in10.0 miNE (50°)3.5 mphClear
11:53 AM55.9 °F0.0 °F10 %29.96 in10.0 miSSW (210°)10.4 mph23.0 mphClear
12:53 PM57.9 °F3.0 °F11 %29.94 in10.0 miVariable6.9 mph20.7 mphClear
1:53 PM60.1 °F10.0 °F14 %29.93 in10.0 miSouth (190°)12.7 mph23.0 mphClear
2:53 PM57.0 °F12.9 °F18 %29.93 in10.0 miVariable6.9 mph23.0 mphClear
3:53 PM55.9 °F12.9 °F18 %29.92 in10.0 miVariable6.9 mph17.3 mphClear
4:53 PM54.0 °F15.1 °F22 %29.93 in10.0 miSouth (190°)8.1 mphClear
5:53 PM52.0 °F18.0 °F26 %29.93 in10.0 miSSW (210°)9.2 mph20.7 mphClear
6:53 PM48.9 °F21.0 °F33 %29.95 in10.0 miSSW (210°)8.1 mphClear
7:53 PM46.9 °F27.0 °F46 %29.96 in10.0 miSouth (190°)6.9 mphClear
8:53 PM44.1 °F28.9 °F55 %29.94 in10.0 miSSW (200°)3.5 mphPartly Cloudy
9:53 PM44.1 °F19.9 °F38 %29.91 in10.0 miSE (140°)5.8 mphScattered Clouds
10:53 PM42.1 °F12.9 °F31 %29.91 in10.0 miCalmClear
11:53 PM43.0 °F17.1 °F35 %29.88 in10.0 miSouth (170°)4.6 mphPartly Cloudy
Hourly data recorded from KTVL, located miles away from South Lake Tahoe, California







STORIES FROM OUR PARTNERS